Location: Le Petit-Vavre
(46.5081°N, 1.5239°E)
Time: 15:51:30
(UTC+00:00)

USA 234 - Pass Details

Date: 03 March 2021
Orbit: 1102 x 1105 km, 123.0° (Epoch: 16 April)

Event Time Altitude Azimuth Distance (km) Brightness Sun altitude
Exits shadow 21:27:19 49° 335° (NNW) 1,388 3.9 -37.5°
Drops below altitude 10° 21:33:26 10° 266° (W) 2,961 6.0 -38.3°
Sets 21:35:59 0° 261° (W) 3,918 6.6 -38.7°
